RH
52 50 52 54 55 53 51 51 54 58 63 66 65 65 65 64 63 60 60 63 64 62 58 51 41 30 20 13 9 8 6 5 6 7 7 8 9 11 13 12 11 10 8 7 5 4 6 8 9 11 12 14 14 14 14 12 9 6 4 3 3 3 3 3 2 2 3 3 4 7 9 8 9 8
54 51 52 53 53 51 50 54 59 65 70 71 69 69 71 71 70 69 67 68 69 65 57 45 31 19 12 9 7 6 5 6 7 7 7 9 11 12 14 13 12 11 9 7 6 5 7 9 10 11 12 13 14 15 16 16 16 14 10 6 4 3 3 3 3 2 2 3 2 4 7 8 8 9
55 52 51 51 49 49 51 57 64 70 73 73 73 74 77 79 77 75 75 74 71 64 52 36 22 13 9 7 6 5 6 6 7 7 8 10 12 14 14 13 12 12 10 8 7 8 9 11 11 12 15 16 17 17 17 17 18 19 18 16 12 7 4 2 3 3 2 3 3 2 5 6 7 8
56 52 48 46 44 47 52 59 67 73 74 74 75 78 83 85 82 81 81 80 72 60 45 28 16 10 8 6 5 5 6 7 7 8 10 11 14 14 13 13 13 12 11 8 8 10 12 15 17 21 24 24 21 20 19 20 19 19 20 22 22 18 12 5 2 4 3 2 3 2 3 4 5 8
54 49 43 40 41 47 54 62 71 75 75 75 76 81 87 87 85 83 83 81 69 50 34 21 12 9 7 5 5 6 6 7 8 9 11 13 15 14 14 14 13 13 11 9 10 14 18 23 27 30 30 25 22 21 19 20 20 20 19 20 23 26 24 17 7 2 3 3 3 2 2 3 3 6
51 43 36 36 42 50 57 65 73 77 76 75 76 82 87 86 83 80 81 79 64 42 25 15 10 7 6 5 5 7 7 8 8 10 13 14 15 15 14 14 13 13 12 9 12 18 24 30 35 35 30 23 23 23 22 23 23 24 24 20 19 23 26 28 20 8 3 2 3 3 2 3 3 3
44 34 31 36 43 51 59 67 75 77 75 74 77 83 87 84 80 80 81 74 56 34 18 12 9 6 5 5 6 8 8 8 9 11 13 15 15 14 14 14 14 14 11 8 11 17 24 33 38 35 29 24 25 27 26 27 27 28 30 26 20 18 20 27 28 19 8 1 3 4 2 2 3 2
34 27 30 36 42 51 61 69 76 77 74 74 80 86 87 83 80 82 81 66 44 26 15 9 7 5 5 6 7 8 8 9 10 12 14 15 14 14 14 14 14 13 11 9 11 16 24 35 39 35 30 27 28 32 33 34 33 31 33 34 28 20 16 20 27 27 18 5 1 4 3 2 3 2
26 27 33 37 43 52 62 70 75 75 75 78 83 88 86 82 83 84 73 51 31 18 11 7 6 5 6 7 9 9 9 10 11 12 14 14 14 14 14 14 14 13 11 10 14 20 27 36 39 33 30 30 32 37 40 41 41 37 34 36 36 30 20 18 24 29 25 13 3 2 4 3 2 3
26 30 34 38 44 52 60 69 73 73 77 83 88 89 84 83 87 79 57 34 21 13 8 6 5 6 7 8 9 10 9 10 12 13 13 13 14 14 14 15 14 13 11 11 18 27 33 38 36 31 34 40 43 45 44 42 44 42 35 32 36 37 30 23 24 29 30 21 8 2 3 3 2 2
30 32 38 48 58 62 63 65 68 75 85 92 93 88 84 88 87 66 39 22 14 9 7 6 6 7 9 9 9 9 10 10 12 13 12 13 13 13 14 15 14 13 12 10 20 35 41 41 42 44 48 51 50 46 42 40 40 39 36 32 34 39 38 32 28 31 33 27 15 5 2 3 3 2
32 37 52 69 77 78 79 80 81 88 95 96 93 88 90 91 76 48 27 16 10 7 6 6 7 8 10 9 9 9 10 11 12 13 12 12 13 12 14 15 15 15 12 9 21 38 43 44 49 53 53 52 51 46 43 43 42 41 40 38 38 39 40 40 37 35 36 31 21 9 3 3 3 2
36 43 58 73 82 89 96 96 92 91 92 92 93 93 94 84 58 33 20 12 8 7 6 6 8 10 10 9 10 9 10 11 12 12 12 12 13 12 13 16 16 16 12 9 20 37 43 44 49 53 55 56 54 51 49 51 53 54 54 53 53 49 41 41 43 42 38 34 27 15 4 3 3 1
40 47 57 75 91 98 95 89 85 88 92 95 95 94 89 68 40 22 14 9 7 7 7 8 8 10 10 9 10 9 10 12 12 12 13 11 12 13 13 16 17 16 12 8 18 37 46 47 53 61 61 58 54 49 47 49 52 56 60 63 65 61 51 43 43 46 42 35 33 25 8 2 4 2
46 51 62 81 95 92 81 77 82 90 94 93 92 90 79 53 28 18 12 8 7 6 7 9 9 10 10 9 10 10 10 12 12 12 12 11 12 13 13 16 16 14 12 8 16 37 48 50 60 69 63 55 51 46 43 44 45 48 54 61 67 68 62 53 45 46 48 40 36 33 17 4 3 3
52 54 64 80 86 78 71 75 85 90 89 88 89 86 69 42 24 18 13 8 7 7 8 10 9 10 10 10 10 11 10 12 12 11 12 12 12 14 15 17 16 13 12 9 15 35 49 50 59 70 67 57 53 54 56 57 59 58 51 50 63 69 64 59 52 49 52 47 38 37 28 10 2 3
55 57 67 79 80 73 73 81 87 89 88 88 89 80 57 34 20 14 10 7 7 7 8 10 10 10 10 10 10 11 10 11 11 11 12 13 13 14 16 16 16 14 12 9 14 33 50 53 59 75 76 64 60 65 71 74 83 82 55 33 45 57 48 47 53 53 55 53 43 39 34 18 4 2
55 63 75 81 78 74 80 87 88 87 88 90 89 72 47 29 19 12 9 7 7 8 9 9 10 10 11 10 10 11 11 11 12 12 12 13 13 14 16 17 18 17 13 10 12 28 48 54 60 82 89 76 70 76 83 94 98 83 51 31 36 42 31 28 40 52 59 58 48 41 36 24 9 2
60 70 79 79 76 79 86 90 88 88 91 91 85 64 40 26 17 10 8 8 8 9 10 10 10 10 11 11 10 11 11 11 12 12 13 14 12 13 16 18 19 18 16 12 9 22 46 54 59 85 99 85 77 83 91 97 85 59 44 41 35 28 23 18 23 42 60 61 51 44 36 25 12 3
68 74 77 75 77 83 89 90 89 90 92 90 77 54 32 19 12 9 9 9 10 11 10 10 11 10 11 11 11 11 11 12 12 13 14 13 12 13 16 18 19 18 17 14 9 19 46 59 62 81 96 86 76 78 73 59 47 47 54 45 22 12 15 11 13 36 60 61 51 44 37 27 14 5
73 75 75 77 81 86 90 91 90 92 92 86 68 43 23 13 9 9 10 11 11 11 10 10 10 10 11 11 11 11 11 12 12 12 13 12 10 12 16 18 18 18 18 16 10 17 44 64 66 75 93 95 80 63 43 24 30 62 77 49 11 5 11 6 10 38 62 62 52 44 37 27 15 6
75 76 77 80 82 88 92 93 93 94 91 80 56 31 16 11 10 11 12 12 12 10 10 10 10 10 11 10 11 11 11 12 12 13 13 11 10 12 17 19 18 17 20 18 12 16 40 66 71 69 83 99 91 61 30 22 45 83 93 61 17 3 8 8 13 40 64 63 51 46 40 28 17 8
79 80 81 81 84 92 97 97 96 95 88 71 44 21 12 11 12 13 13 12 11 9 10 10 10 10 10 10 11 11 11 12 13 13 13 12 11 13 17 21 19 17 20 19 13 15 39 68 79 74 76 91 98 78 41 30 59 94 102 79 36 6 5 10 14 32 54 57 49 47 43 30 18 10
86 86 84 82 86 94 99 98 98 95 84 61 32 15 11 12 13 14 13 11 10 9 10 9 10 11 10 10 11 10 11 13 13 14 15 13 12 13 17 22 22 20 21 21 15 14 37 70 84 84 90 95 98 96 69 43 56 89 106 98 62 19 3 7 14 23 36 47 50 47 43 33 20 10
94 92 89 85 86 93 98 99 99 94 77 49 24 13 12 12 13 14 12 11 9 8 9 9 10 10 9 10 10 10 11 13 13 15 15 14 12 14 18 23 24 23 22 23 19 13 31 70 85 82 94 101 98 103 89 53 47 77 102 106 81 37 8 5 14 22 30 43 52 47 41 34 22 11
99 96 94 89 87 92 99 100 99 91 67 37 18 14 13 13 14 13 11 10 9 8 9 10 10 10 10 10 10 10 12 13 14 15 14 13 13 16 22 25 25 26 23 22 23 14 22 67 92 82 86 100 99 90 62 26 32 74 102 104 84 48 20 10 15 28 37 44 49 46 40 33 22 11
101 99 98 91 88 94 99 100 99 83 53 27 17 15 14 13 14 12 10 9 8 8 9 9 9 10 9 10 9 10 12 12 14 14 11 12 16 20 25 28 28 30 26 22 26 17 15 56 98 93 85 98 103 85 41 4 24 75 100 93 70 43 28 20 17 28 40 43 42 41 37 31 22 12
98 99 95 88 89 97 100 101 95 72 41 23 18 15 13 14 13 11 10 8 7 9 9 9 10 9 9 10 9 10 12 12 13 13 10 13 19 22 28 31 30 32 28 23 27 21 10 41 91 104 95 96 104 95 56 11 16 63 91 80 52 33 30 28 21 23 32 35 36 37 36 30 22 13
96 92 89 89 96 100 100 100 89 61 34 23 19 14 13 14 12 10 9 8 8 9 8 8 9 9 8 9 9 9 12 12 11 12 11 12 17 22 28 33 32 33 31 26 28 25 11 26 74 105 102 95 101 102 71 21 4 41 81 79 49 32 32 32 29 29 31 33 36 37 35 30 22 13
94 91 92 97 100 100 100 99 82 54 33 24 18 14 13 13 12 9 8 8 8 8 8 8 9 9 8 8 9 9 11 12 11 11 11 11 14 18 23 29 32 34 35 30 27 27 16 15 53 97 105 96 99 105 87 42 5 18 62 78 59 41 36 35 37 41 43 45 46 41 35 30 23 15
92 95 99 100 100 99 99 95 77 52 36 26 17 14 14 13 11 9 7 8 8 7 8 8 8 9 8 8 9 10 11 12 11 11 11 11 13 15 17 23 28 31 38 36 28 27 23 12 31 79 105 101 96 101 102 78 32 10 38 70 67 53 46 42 42 48 53 54 50 43 36 30 24 17
93 98 102 100 99 99 98 91 75 53 37 26 16 13 14 12 11 8 7 8 8 7 8 8 7 8 8 7 9 9 10 12 11 11 12 11 13 15 14 18 23 26 33 38 30 26 28 17 15 51 93 106 98 96 105 100 58 13 19 53 66 60 55 51 48 50 53 53 49 43 36 29 22 15
98 102 102 98 97 99 98 90 74 54 38 25 15 13 13 12 10 8 7 8 8 7 8 8 7 8 7 7 8 9 10 12 11 11 13 12 13 17 15 16 20 23 27 34 30 25 29 25 13 26 69 103 105 95 99 103 70 19 7 32 54 59 57 56 54 52 51 49 47 43 38 30 23 15
101 100 98 96 97 100 99 90 74 56 39 24 14 12 13 11 9 7 7 8 8 8 8 8 7 8 7 7 8 9 10 12 11 11 13 13 13 16 17 16 18 22 25 28 28 24 25 27 19 15 42 87 108 99 97 105 88 43 10 10 28 44 53 55 54 53 52 49 46 44 42 33 23 15
100 96 96 98 98 101 100 90 74 56 38 24 15 13 13 11 9 8 7 8 8 8 8 8 7 7 7 7 8 9 9 11 11 10 12 14 14 15 18 18 17 21 24 25 26 25 21 23 23 14 21 62 101 104 95 101 103 80 41 13 8 20 33 42 44 43 44 46 44 42 39 30 19 10
98 94 96 99 99 100 100 92 76 56 38 24 16 14 13 11 9 7 7 7 8 8 8 8 7 6 7 7 7 9 9 10 11 11 11 14 15 15 18 20 19 20 23 22 25 28 22 18 22 18 13 34 77 102 101 96 99 101 85 56 28 12 11 19 26 28 29 30 32 32 29 21 13 8
94 93 96 99 100 100 100 93 77 57 39 26 17 14 14 11 9 8 7 7 8 9 8 8 7 6 7 7 6 8 9 10 11 11 11 13 15 17 18 21 21 21 23 22 24 28 27 20 18 20 16 16 38 75 100 102 94 95 101 95 68 35 16 11 10 12 17 18 16 18 19 13 7 5
91 94 97 99 100 100 100 94 78 57 39 28 20 16 15 12 9 8 8 7 9 9 9 9 8 7 6 7 7 7 8 10 11 12 11 12 15 18 20 21 22 22 23 24 24 26 28 25 19 19 20 15 15 36 72 100 101 90 91 102 96 73 52 38 20 6 5 9 8 8 9 8 6 5
94 98 100 100 99 100 100 95 79 59 41 30 23 18 16 14 11 9 8 8 9 10 10 9 8 7 6 6 7 7 8 10 11 11 11 12 14 18 21 22 24 25 24 24 25 25 26 28 24 20 19 19 16 17 34 69 98 98 89 93 102 99 90 79 55 25 7 4 6 6 5 4 3 3
100 100 100 100 99 100 101 95 80 60 43 32 25 21 18 15 13 10 9 9 9 10 11 11 9 8 7 6 6 7 7 9 11 11 12 12 13 17 21 23 25 27 27 26 26 26 25 27 28 26 21 20 23 22 17 29 64 95 101 95 93 97 100 95 78 54 28 9 2 3 4 5 5 4
101 100 100 99 99 99 101 96 80 60 45 34 28 25 22 18 15 12 10 9 10 10 12 12 10 8 7 6 6 7 7 8 10 11 12 13 12 14 20 24 27 28 29 29 28 27 26 26 29 31 29 23 23 27 23 14 25 59 93 104 96 91 94 96 91 76 53 32 19 11 3 -0 2 4
101 101 101 100 98 99 101 96 79 59 46 37 31 29 25 20 16 14 11 10 10 11 12 12 10 8 7 6 6 7 7 8 10 11 12 12 12 13 17 23 28 30 31 31 31 30 29 29 29 31 33 30 23 22 25 23 15 21 52 88 103 97 91 93 98 94 79 63 51 35 19 11 7 3
100 102 102 101 99 100 101 96 78 59 47 40 34 32 28 22 18 16 13 11 11 11 12 12 10 8 7 6 6 7 7 7 9 11 12 12 12 13 15 20 27 31 32 33 34 33 32 32 30 29 31 33 30 22 20 25 25 15 17 45 82 102 98 89 89 94 95 88 71 47 30 26 21 8
100 101 103 102 100 99 101 95 78 59 49 42 37 34 31 24 20 18 15 12 11 12 12 12 11 9 8 7 7 7 8 8 8 10 12 13 13 12 13 17 24 30 34 35 35 36 35 34 33 32 31 32 33 30 23 20 25 25 16 15 39 77 102 101 90 84 88 96 95 74 47 29 14 2
100 100 102 102 99 100 102 96 79 61 50 44 39 35 32 26 22 19 16 13 12 12 12 12 11 10 9 9 9 9 8 8 9 10 12 14 14 12 12 14 20 27 33 36 37 37 38 38 36 35 34 33 33 34 32 24 20 24 25 17 15 36 71 97 104 94 83 84 96 101 90 69 42 16
Wind_Speed
36 37 36 35 36 37 38 39 39 40 41 42 44 46 47 48 49 50 50 51 51 50 49 48 48 48 48 48 48 48 47 45 43 42 43 44 47 49 52 54 56 58 60 63 64 61 54 44 35 31 30 30 30 31 31 32 35 40 47 53 56 55 55 57 59 61 64 66 68 69 67 63 60 56
38 37 36 36 37 38 38 39 40 40 41 43 45 46 47 49 50 51 51 51 50 49 48 48 47 47 47 47 46 46 45 43 42 42 43 45 47 50 52 54 55 57 60 62 62 58 51 42 36 34 35 35 35 34 32 31 30 32 35 41 48 53 55 55 57 59 61 63 65 69 69 67 64 60
39 38 37 37 37 38 39 39 40 41 42 43 45 47 48 50 51 52 52 51 50 48 47 47 47 47 47 46 45 44 44 43 42 43 44 46 48 50 52 53 55 57 60 61 59 55 50 45 42 41 42 43 42 41 38 35 33 32 32 33 38 44 50 54 56 57 59 60 63 66 69 70 68 64
39 38 37 37 38 39 39 40 41 41 42 44 46 48 49 50 51 52 51 50 49 47 47 46 47 47 46 46 45 44 43 42 42 43 45 47 49 51 52 53 54 56 58 58 55 51 49 47 47 46 46 45 44 42 40 39 38 37 36 35 34 37 42 48 53 56 58 59 61 64 67 70 70 67
39 38 38 38 38 39 40 41 41 42 43 44 46 48 50 51 52 51 50 49 48 47 46 47 47 47 46 45 44 43 41 41 42 43 45 47 49 51 52 53 54 55 56 55 52 49 48 47 47 47 44 42 40 39 37 35 35 36 38 39 39 37 38 41 47 53 57 59 60 62 65 69 71 69
38 38 39 39 39 40 40 41 42 42 43 45 47 48 50 51 52 51 50 48 47 46 46 47 47 46 45 44 43 41 40 41 42 43 45 48 50 51 52 53 53 54 55 53 49 47 46 45 45 44 41 38 37 36 35 33 31 31 33 36 40 42 41 40 42 47 54 58 60 62 64 67 70 70
38 38 39 39 39 40 41 42 43 43 44 45 47 49 51 52 52 51 49 47 45 45 46 46 46 45 44 42 41 40 40 41 42 44 46 48 50 51 52 53 53 53 53 52 48 46 45 44 43 41 38 37 37 37 37 37 36 35 34 33 35 40 43 44 43 44 50 56 60 62 63 66 69 70
38 38 38 39 40 41 42 43 43 43 44 46 47 50 51 52 52 51 48 45 44 45 45 45 45 44 43 41 39 39 40 41 42 44 46 48 50 52 53 53 53 52 53 52 50 47 45 44 42 38 36 36 37 38 39 39 40 39 37 35 33 34 39 44 45 44 47 53 59 62 64 66 68 70
37 37 38 39 40 41 42 43 43 44 45 46 48 50 52 52 52 49 45 43 44 44 44 44 43 42 41 39 38 39 39 40 42 44 46 48 50 52 53 53 53 51 52 53 50 47 45 43 39 36 36 36 37 39 39 39 39 39 38 36 34 33 35 39 44 46 47 51 57 62 64 66 69 70
37 37 38 39 40 42 43 43 44 44 44 45 48 50 52 52 50 46 42 42 43 44 43 42 41 40 39 38 38 39 39 41 42 44 46 49 51 52 52 53 52 52 53 53 50 47 44 41 37 35 35 36 38 39 39 38 37 36 36 36 34 33 34 36 41 45 48 50 55 61 65 66 69 70
36 37 38 40 41 42 43 43 44 44 44 45 48 50 51 50 46 42 41 42 42 42 41 41 40 39 38 38 38 39 40 42 44 45 47 49 51 52 53 52 52 52 53 53 49 46 43 39 36 35 35 36 37 38 38 37 36 35 34 35 35 34 35 36 38 42 47 50 52 59 65 66 69 70
37 38 39 40 42 43 44 45 46 44 43 45 47 49 49 46 42 39 40 41 41 40 40 39 39 38 38 38 38 39 40 42 44 46 48 50 50 51 52 53 52 52 53 52 48 44 42 38 37 37 37 38 37 36 36 37 37 37 37 36 36 35 35 36 38 40 43 48 50 55 63 67 68 70
37 38 39 40 42 44 44 43 42 40 41 44 46 47 45 41 38 38 39 40 39 39 38 38 37 37 38 39 39 39 41 42 45 47 49 51 51 51 51 53 53 53 53 52 49 44 41 38 38 39 40 40 39 37 37 38 39 41 41 41 40 38 36 36 39 41 42 45 48 52 59 66 68 70
37 38 38 39 40 41 39 38 38 39 41 43 45 44 41 38 37 37 38 38 38 37 37 37 37 37 38 39 40 40 41 43 46 48 50 51 51 51 51 52 53 53 53 52 50 46 41 37 38 40 41 41 40 38 37 38 40 42 44 46 45 42 40 37 39 43 43 44 46 49 56 63 68 69
37 37 38 38 38 38 38 38 39 40 42 43 43 42 38 36 36 37 37 38 37 37 37 37 37 37 38 40 40 41 42 44 46 49 51 52 52 52 52 52 52 52 53 53 50 47 42 38 38 41 42 41 39 37 36 38 40 43 45 46 46 44 43 42 42 44 46 46 46 48 53 60 66 68
36 38 38 37 37 38 39 39 40 41 43 44 43 40 37 35 36 37 38 38 37 37 36 36 37 38 39 40 41 42 42 44 46 49 51 52 53 53 54 53 53 53 54 53 51 48 43 39 39 43 44 43 41 40 41 41 43 47 48 47 46 46 46 46 46 47 48 49 48 49 52 57 64 68
36 37 37 36 37 38 39 39 40 42 43 43 41 38 35 34 35 36 37 37 37 36 36 36 37 38 39 41 42 42 43 44 47 50 51 52 53 54 54 54 54 54 55 54 52 50 46 41 41 46 47 47 47 47 46 47 49 52 52 46 44 44 44 46 49 51 50 51 51 51 53 55 61 66
36 36 36 36 36 38 38 39 40 42 43 42 39 36 34 34 35 36 37 37 36 36 36 36 37 39 40 41 42 43 44 46 49 50 51 52 53 53 53 54 55 55 56 56 54 51 47 42 43 46 48 50 52 51 49 49 52 54 50 43 39 39 39 42 48 53 53 54 54 54 55 56 59 64
36 36 35 35 36 38 39 40 40 41 42 41 37 34 33 34 35 36 36 36 36 36 37 38 39 40 41 42 43 44 46 48 49 50 51 52 53 53 53 54 55 55 57 58 57 54 50 45 45 46 48 52 54 52 49 50 52 50 45 40 36 33 33 36 45 52 55 56 56 56 56 57 59 63
35 34 34 34 36 38 39 39 40 41 41 39 35 33 32 33 35 35 35 35 36 36 37 39 40 41 42 43 45 45 46 48 48 49 50 52 53 54 53 53 55 55 57 59 59 58 53 49 49 49 51 54 54 50 50 52 50 45 41 37 32 27 27 30 39 50 55 56 58 58 58 58 59 62
34 33 33 35 37 38 38 39 40 41 39 36 33 31 31 32 33 33 33 34 35 36 37 39 40 42 43 44 44 45 46 47 48 48 50 52 53 53 53 53 54 55 57 59 60 60 56 52 51 52 54 55 54 51 51 52 46 40 39 36 28 21 21 24 34 46 52 54 57 59 58 58 59 61
32 32 34 36 37 37 38 39 40 40 37 33 30 29 30 31 32 32 32 33 34 36 37 39 40 41 42 42 43 44 45 47 48 49 51 52 53 53 53 53 54 55 56 58 60 60 58 54 52 52 53 53 52 52 54 49 42 38 37 35 28 18 16 20 29 43 50 51 55 58 58 58 59 60
32 32 35 36 37 37 38 39 39 38 34 30 28 28 29 29 30 30 31 32 34 35 37 39 40 40 41 41 42 44 46 47 47 49 51 53 53 53 52 52 53 55 56 57 59 60 59 55 53 52 54 53 49 52 55 49 40 37 36 34 29 19 12 17 26 38 47 49 53 57 58 57 57 59
32 34 35 36 36 37 38 39 38 35 30 27 27 27 27 28 29 29 30 32 34 35 37 38 40 40 41 42 43 44 45 46 46 48 50 52 52 52 51 51 52 55 56 57 59 61 59 56 53 53 56 56 50 50 55 51 42 37 35 32 29 21 11 14 23 33 42 47 50 54 57 57 56 57
33 34 35 36 37 37 38 38 36 31 27 25 25 26 27 28 28 29 30 32 33 35 37 39 40 40 41 42 43 43 44 45 46 47 49 50 51 51 51 51 51 53 55 56 58 60 58 55 53 52 55 57 50 47 51 52 44 37 34 30 26 21 11 10 20 30 38 44 48 51 55 56 54 56
33 34 35 36 37 38 38 37 33 27 24 24 24 25 26 27 28 29 30 32 33 35 37 38 39 40 41 42 42 43 44 45 45 46 47 48 49 50 50 51 51 52 54 55 57 59 58 55 53 52 55 57 50 45 49 50 42 36 34 30 24 18 11 6 17 27 35 40 45 49 53 54 52 54
33 34 35 36 37 39 38 35 30 24 22 23 24 25 26 26 27 28 29 31 32 34 36 38 39 40 41 41 42 43 44 44 44 46 47 47 47 48 48 50 51 52 54 55 56 58 58 55 52 51 55 57 51 47 50 49 40 34 34 31 23 16 10 3 13 24 31 36 41 47 51 51 50 51
33 34 35 36 39 39 37 32 26 22 21 22 23 24 25 26 27 28 29 30 32 34 36 37 39 40 41 41 42 42 43 44 45 46 47 46 45 45 46 48 49 50 52 54 55 56 57 56 51 48 53 56 51 47 51 50 41 33 32 31 25 17 11 3 7 18 27 32 39 45 48 47 46 48
32 33 35 37 39 38 34 29 24 21 21 22 23 24 25 25 26 27 28 30 32 33 35 37 38 40 41 41 42 42 43 44 45 45 45 44 43 43 44 46 48 49 51 52 54 55 56 56 50 46 49 54 51 46 49 51 43 34 30 30 27 20 13 7 5 13 21 29 36 42 43 41 41 44
31 33 35 36 36 35 32 28 23 20 20 22 23 23 24 24 25 27 28 29 31 32 34 36 38 39 40 41 42 42 42 43 44 45 44 43 42 42 42 43 46 48 50 51 52 53 54 55 51 45 45 50 50 46 46 48 45 36 29 27 26 21 16 11 8 13 18 24 32 36 37 36 37 40
31 32 33 33 33 32 30 26 22 19 20 22 23 23 23 23 24 26 27 28 30 32 34 36 37 38 39 40 41 41 42 42 43 44 43 42 41 41 41 42 43 45 48 49 50 51 52 54 52 46 42 45 48 46 45 45 44 37 28 23 23 21 17 13 10 12 15 18 24 29 30 31 34 38
31 32 31 31 31 31 29 25 21 20 21 22 23 22 23 23 24 26 27 28 29 31 33 35 37 38 39 39 40 41 41 42 42 43 42 41 41 41 41 41 42 43 45 46 47 49 50 52 53 49 43 41 44 45 45 43 40 36 27 20 19 18 16 14 11 9 11 14 17 21 23 25 30 35
33 31 30 29 30 30 27 24 21 20 21 22 23 22 22 23 24 25 26 27 29 30 32 34 36 37 38 39 39 39 40 41 41 41 41 40 40 40 41 41 42 43 44 44 45 47 48 49 51 50 46 41 40 42 43 42 38 35 30 22 17 15 14 13 12 9 8 10 12 15 16 20 25 32
32 30 29 29 29 29 27 23 21 21 21 22 23 22 22 22 23 25 26 27 28 29 31 33 35 36 37 38 38 38 39 40 40 40 40 40 40 40 40 41 41 42 43 44 44 45 46 46 47 48 46 41 38 37 40 41 38 36 33 27 20 14 11 10 10 10 9 8 10 11 13 16 22 29
29 28 28 29 30 30 27 23 21 21 22 22 22 22 22 22 23 24 25 26 27 29 30 32 33 35 36 36 37 37 38 39 39 40 40 39 39 39 40 40 41 41 42 43 43 44 45 45 45 46 45 41 37 35 36 38 37 34 33 33 28 19 12 8 6 7 8 8 9 10 12 15 21 29
28 27 28 30 32 32 27 23 21 21 22 22 22 22 22 22 23 24 24 25 27 28 30 31 33 34 35 36 36 36 37 38 39 39 39 38 37 38 39 39 40 41 41 42 43 44 44 45 45 45 45 42 38 35 35 36 35 33 32 34 35 29 20 14 10 8 7 8 8 8 10 14 22 29
28 27 28 32 35 33 27 22 21 21 22 23 23 23 23 23 23 24 24 25 27 28 29 31 32 33 35 35 36 36 37 37 38 39 39 38 37 37 37 38 39 40 40 41 42 43 43 43 45 45 46 44 40 38 37 34 32 31 31 32 34 33 27 22 18 15 13 12 11 9 9 14 21 28
27 28 32 35 36 33 27 22 21 21 22 23 23 23 23 23 24 24 24 25 27 28 29 31 32 33 34 35 36 37 37 37 37 37 38 38 37 36 36 37 38 39 39 40 41 41 41 42 43 44 45 45 43 41 38 34 30 28 28 29 31 31 29 25 22 21 19 18 17 14 11 12 19 26
29 33 35 35 34 32 26 22 21 21 22 24 24 24 24 24 24 24 24 25 26 28 29 30 32 33 33 34 34 35 35 35 36 36 37 38 37 35 35 36 36 37 38 39 39 39 40 40 41 42 44 45 45 43 41 38 32 26 24 24 25 25 25 24 23 22 21 21 19 17 14 12 16 22
32 34 33 32 32 30 26 22 21 21 22 24 25 25 24 25 25 24 25 25 26 27 29 31 32 32 33 33 33 34 34 34 35 36 37 37 37 35 35 35 35 36 37 37 37 38 39 39 40 41 42 43 44 43 41 39 34 27 21 20 19 19 20 20 20 20 19 19 19 18 16 13 14 17
32 33 31 30 31 29 25 23 21 21 22 24 25 25 25 25 25 25 25 25 26 27 29 30 31 32 32 33 33 34 34 34 34 35 36 36 36 35 34 34 34 35 35 36 36 37 38 38 39 39 39 39 39 38 36 36 35 30 24 19 17 16 15 15 16 16 15 15 14 15 14 13 13 15
33 33 31 30 30 27 24 23 21 21 22 24 25 25 25 25 25 25 25 25 26 27 28 30 31 32 32 33 33 34 34 34 34 34 34 35 35 35 34 33 33 33 34 35 36 36 37 37 37 36 36 35 35 35 35 35 35 34 29 22 17 15 14 12 11 11 11 11 10 9 9 10 11 13
35 34 31 30 29 27 24 23 22 22 22 24 25 25 25 25 26 26 25 25 26 27 29 30 31 32 33 33 33 33 33 33 33 33 33 34 35 34 33 32 32 32 33 34 35 35 35 36 35 35 34 34 33 34 34 34 33 33 32 27 21 16 13 11 9 7 6 7 7 6 6 7 9 11
36 34 31 30 29 27 25 23 22 22 23 24 25 25 25 26 26 26 26 26 26 27 29 30 31 33 33 33 33 33 33 33 33 33 33 33 34 34 33 32 31 31 32 32 33 33 34 34 35 35 35 34 33 32 32 32 31 30 31 30 26 19 13 10 9 6 3 3 4 4 5 7 8 10
37 35 33 30 28 26 25 24 23 23 23 24 25 25 26 26 26 27 27 26 26 27 29 30 31 32 33 33 33 33 33 33 33 32 32 33 33 34 34 32 31 30 30 30 31 32 32 32 33 34 34 34 33 32 31 31 31 29 27 27 26 23 18 13 10 7 3 1 1 1 3 5 7 9
Wind_Direction
309 310 311 313 313 314 316 317 317 318 318 318 318 319 319 319 319 319 319 319 319 319 317 317 317 317 318 318 318 317 316 316 316 317 318 319 321 321 321 320 320 319 319 319 318 318 317 313 305 299 298 299 300 299 297 292 282 271 263 258 254 251 249 248 246 243 241 239 238 237 236 235 234 234
308 309 311 312 312 313 314 315 315 315 315 316 316 317 317 318 318 319 320 320 319 319 317 318 318 319 319 319 318 317 316 317 317 318 319 321 321 321 321 320 320 321 321 320 319 318 316 311 304 299 297 296 295 293 291 289 286 281 272 264 258 253 248 246 245 243 240 238 237 235 234 234 233 232
307 309 310 311 311 312 312 312 313 313 313 314 315 315 315 316 318 319 320 320 319 318 317 318 320 320 320 319 318 317 317 319 319 320 321 322 322 321 321 321 322 322 323 322 319 317 314 309 303 301 300 298 295 290 286 281 278 276 274 271 265 259 252 246 244 242 240 237 236 234 232 232 231 230
306 307 309 310 310 310 310 310 310 311 312 313 313 314 314 315 317 319 320 319 317 317 318 319 320 320 320 319 319 319 320 321 321 321 321 322 322 322 322 323 323 323 324 323 318 315 312 308 305 304 303 301 297 293 288 282 276 271 268 267 266 265 259 251 244 242 239 236 234 233 231 229 229 228
305 307 308 309 309 309 309 308 308 309 310 312 312 313 313 315 317 318 319 317 316 318 319 320 321 321 320 320 320 321 322 322 322 321 322 322 323 323 323 324 323 325 326 323 318 314 312 309 308 307 306 303 301 298 295 290 284 277 270 265 262 262 262 258 249 242 238 236 233 231 229 228 227 226
305 307 307 308 308 308 307 306 307 308 310 311 312 312 312 314 316 318 318 317 317 318 320 321 321 321 321 321 322 323 323 322 322 322 323 323 323 324 324 324 325 326 327 324 318 314 312 310 309 308 307 304 302 301 299 296 292 288 282 272 263 258 257 258 255 246 238 235 233 230 228 227 226 224
305 306 306 307 307 306 305 305 306 308 309 310 311 311 312 314 316 317 317 316 317 319 320 321 321 321 321 322 323 324 323 323 323 324 324 324 324 325 325 326 326 326 327 326 321 317 314 312 310 307 303 301 299 298 297 294 292 290 289 284 272 261 254 253 254 251 241 234 232 229 227 225 225 223
304 305 306 306 306 305 305 305 306 308 309 310 310 311 312 314 316 317 316 316 318 321 321 321 322 322 322 323 324 325 324 324 324 324 325 325 326 326 326 327 327 327 329 329 325 320 318 315 310 306 301 298 298 296 295 293 291 289 287 286 281 271 258 249 248 250 245 235 230 228 226 224 224 222
303 305 306 306 305 305 305 305 306 307 308 309 309 310 312 314 316 315 315 318 321 322 322 322 322 322 322 325 326 325 324 324 324 325 326 326 327 327 327 327 328 329 332 332 327 322 320 317 312 306 301 299 298 297 296 293 290 289 288 285 282 277 267 252 243 244 247 240 230 227 225 222 222 222
303 305 305 305 305 305 305 305 306 307 307 308 309 311 312 314 315 315 317 321 323 323 323 323 322 322 324 327 327 326 325 325 325 326 327 327 328 328 328 329 330 332 335 334 330 324 321 318 313 307 304 303 303 302 301 298 293 289 289 288 284 277 270 259 244 239 243 243 234 227 225 222 221 221
303 304 305 305 305 305 305 306 305 305 305 307 309 311 312 314 314 316 320 323 323 323 323 322 322 324 327 328 328 327 327 327 326 327 328 329 329 329 329 331 333 335 336 336 332 325 321 318 313 311 310 309 309 306 304 302 296 290 286 285 285 279 270 261 250 239 238 242 239 229 224 222 220 220
303 304 304 304 305 306 306 305 305 305 305 307 309 311 313 314 315 318 322 323 323 323 323 323 324 327 328 329 329 329 328 328 327 328 330 331 331 330 331 334 336 337 337 337 334 327 322 318 314 313 313 314 313 310 306 302 297 291 284 279 280 278 271 261 253 244 237 239 240 233 225 221 219 220
304 305 305 305 306 308 307 307 308 309 309 309 310 312 314 315 317 320 323 323 323 323 323 324 326 329 330 330 330 330 329 329 329 330 331 331 332 332 334 337 337 337 338 339 337 332 325 321 317 315 316 318 319 316 311 305 299 293 286 280 275 272 268 259 251 245 238 236 239 235 227 221 219 219
304 306 306 307 309 311 310 312 313 313 312 312 314 315 317 317 318 322 323 322 324 324 324 325 329 332 332 331 331 331 331 330 330 331 332 332 333 334 336 338 338 338 339 341 340 336 331 327 324 321 321 322 322 318 315 310 304 296 288 282 276 269 263 256 247 242 238 234 235 235 229 221 218 217
304 306 306 307 309 311 313 315 315 314 315 316 317 318 317 317 320 322 323 323 325 324 325 329 332 333 333 332 332 332 332 332 331 331 333 334 335 337 338 339 339 339 342 343 342 339 335 332 329 326 325 326 324 320 317 313 308 302 294 285 278 271 263 254 245 238 234 232 231 233 230 223 217 216
305 307 307 306 308 310 313 314 314 315 316 317 318 318 317 318 321 323 324 324 325 325 328 332 333 334 334 333 333 333 332 332 332 333 335 336 337 338 338 338 340 342 344 344 344 342 339 336 332 330 329 328 326 321 317 312 308 308 303 292 280 273 265 254 243 234 230 227 226 227 229 223 217 215
307 307 306 306 308 310 311 313 314 316 317 318 318 317 317 320 322 323 324 325 325 326 330 334 335 335 335 334 333 333 333 333 334 335 336 336 338 338 338 339 342 344 345 346 346 345 343 339 336 335 333 332 330 327 322 315 310 311 310 301 285 275 266 252 239 231 225 223 222 223 225 223 217 213
307 306 305 306 308 309 311 313 314 316 317 318 318 316 317 321 323 323 324 325 326 328 333 336 336 336 336 335 334 334 335 336 336 336 336 337 338 338 339 342 344 345 346 347 347 346 345 343 341 338 337 336 334 331 326 319 314 314 314 306 291 277 266 249 234 227 221 218 218 219 221 221 215 212
306 305 305 307 308 309 312 313 315 317 318 318 317 316 319 323 324 324 325 326 328 331 335 337 337 337 336 336 336 337 337 337 337 336 336 337 338 340 342 344 345 346 347 348 347 347 347 347 345 343 342 340 336 333 329 322 319 320 319 310 297 281 266 248 231 222 217 214 214 215 218 219 214 210
305 305 305 306 308 310 312 314 316 317 318 317 316 317 321 324 324 325 327 328 330 333 336 337 337 337 337 337 338 337 337 337 336 336 336 337 338 341 344 345 346 347 348 349 348 348 348 349 348 348 347 344 340 338 333 328 325 327 326 320 307 287 267 248 228 217 213 212 211 212 216 217 213 208
304 304 305 307 308 310 312 315 317 317 317 316 316 318 322 324 325 326 328 328 330 333 335 336 336 337 337 337 337 336 336 336 336 336 337 338 340 343 344 345 346 348 349 350 349 349 350 350 349 351 351 346 344 344 341 335 333 335 334 331 322 296 268 246 225 213 209 210 209 209 213 215 211 207
302 303 305 307 309 311 313 315 316 317 316 315 316 319 322 324 325 326 327 328 330 332 334 336 336 335 334 334 335 336 336 337 337 337 338 339 342 344 345 345 347 349 350 351 351 350 350 350 350 351 352 349 346 348 348 344 341 341 341 341 336 313 271 241 219 208 206 208 207 207 211 214 210 206
301 301 305 308 310 311 312 314 315 316 315 314 316 319 321 323 323 323 325 327 329 332 334 335 334 333 333 336 338 338 338 338 339 339 339 341 343 344 345 346 348 350 351 352 353 352 351 350 349 351 353 352 349 350 353 351 347 345 346 347 345 331 281 235 215 205 204 206 205 205 209 212 209 204
300 301 305 308 310 311 311 312 313 314 313 314 316 318 320 321 320 321 324 326 329 332 334 333 332 333 336 339 339 339 339 339 340 341 342 343 343 343 346 348 349 351 352 353 355 354 352 351 350 353 356 354 350 353 355 353 350 349 348 349 350 343 302 234 211 202 201 203 203 203 207 210 208 203
301 302 305 308 310 311 311 311 311 312 312 313 315 317 318 317 318 321 324 326 329 333 333 331 332 335 338 339 339 340 340 341 342 344 343 342 342 344 346 348 350 352 352 354 355 355 354 353 351 353 358 356 353 356 355 351 350 352 351 351 354 350 325 239 208 198 196 199 201 202 206 208 206 202
301 302 305 307 310 311 310 309 310 311 311 311 313 315 315 315 317 321 323 326 330 331 330 331 334 337 338 339 340 341 342 343 344 344 342 343 344 346 347 349 351 353 353 355 356 356 356 356 353 352 358 1 360 0 358 353 352 355 356 356 357 356 343 252 206 195 194 198 200 201 205 207 205 200
301 302 305 307 310 310 309 308 309 309 309 309 310 312 312 314 317 320 323 327 329 329 330 332 335 336 337 339 341 342 343 344 344 343 343 346 347 347 348 350 352 353 354 355 357 357 357 359 357 354 358 2 3 3 3 1 359 360 1 2 3 5 0 284 205 193 194 198 200 201 204 206 203 199
299 301 304 308 310 309 307 307 308 307 305 305 307 309 310 312 315 320 324 326 327 328 331 333 334 336 337 340 342 343 343 344 344 344 346 348 348 348 349 351 353 354 355 356 357 358 358 360 0 359 360 1 2 4 6 7 6 4 6 9 11 17 23 13 203 193 193 196 198 200 203 205 202 198
298 301 306 309 309 307 306 307 306 303 302 304 305 307 309 312 317 321 322 324 326 329 331 332 333 335 338 340 342 343 344 344 345 346 348 348 349 350 351 352 354 355 357 357 357 358 360 1 2 3 3 2 3 5 8 9 8 8 11 15 19 26 40 60 157 181 185 190 194 198 202 203 200 197
298 303 307 310 310 308 306 305 303 300 300 302 303 305 309 313 316 317 319 323 327 329 329 331 333 336 338 340 341 342 344 345 345 347 348 348 350 350 351 353 355 357 358 358 358 358 0 1 3 5 5 3 3 6 8 9 10 11 14 21 26 34 50 74 123 158 171 183 192 197 200 201 199 196
297 304 308 310 311 310 306 303 301 299 299 300 301 304 308 310 312 314 319 324 327 327 329 331 333 336 338 339 341 342 344 345 347 348 348 349 351 351 351 353 355 358 360 359 358 359 1 2 4 6 7 4 4 6 7 9 11 12 13 22 33 43 59 79 108 146 164 179 191 197 199 199 198 197
295 302 307 310 311 310 306 303 299 298 298 298 299 302 306 309 311 314 319 323 326 328 329 330 332 335 337 339 341 342 343 345 348 348 347 349 352 352 352 353 355 358 1 0 360 1 2 2 4 7 8 6 6 7 7 9 15 17 16 22 36 46 63 83 99 132 162 177 188 195 199 200 200 199
294 300 304 307 308 307 305 301 297 295 295 295 296 300 303 307 310 314 318 323 326 328 328 329 331 333 336 338 340 341 342 345 347 348 347 350 352 353 353 354 355 358 0 0 2 3 3 3 5 6 8 8 9 9 8 11 20 26 24 26 35 43 56 80 96 114 145 172 185 192 200 204 204 202
295 299 301 303 305 305 303 298 294 292 293 293 295 299 302 305 308 313 318 322 325 326 327 328 330 332 335 338 339 340 342 344 346 348 349 350 352 353 354 355 356 358 359 359 2 4 4 5 6 8 8 9 11 14 13 14 21 30 33 33 36 40 49 71 94 113 136 165 183 190 199 205 206 204
296 297 300 303 304 303 299 293 289 288 290 291 293 296 299 302 305 311 316 320 323 325 325 326 328 330 333 336 338 340 342 343 345 347 349 350 351 353 354 355 357 358 359 359 1 3 4 5 7 9 10 11 13 17 19 18 20 29 37 40 41 42 51 68 92 124 147 168 183 191 201 205 205 203
291 294 298 302 302 300 295 289 285 285 287 288 290 292 295 298 302 308 313 317 321 323 324 325 326 329 332 335 338 340 341 342 345 347 348 349 351 353 353 355 357 358 358 359 1 2 3 4 6 8 11 14 15 18 21 21 20 26 35 41 42 42 49 64 78 103 132 150 164 179 195 202 201 200
287 292 297 299 298 297 293 285 280 282 284 285 287 289 291 294 300 306 311 316 319 321 323 324 326 328 331 334 336 339 341 342 344 346 346 348 351 352 353 355 356 357 358 359 1 2 1 3 5 6 10 14 17 19 20 20 20 23 31 38 40 38 42 55 66 78 94 106 115 132 164 189 195 196
284 290 294 295 296 296 291 282 276 278 281 282 284 286 288 292 298 304 310 314 318 320 323 324 325 327 330 333 336 338 340 342 343 344 345 348 349 350 352 355 355 356 357 360 1 1 0 2 4 6 8 12 15 18 20 20 20 22 26 33 37 36 36 43 54 65 76 85 93 103 129 168 188 192
284 290 292 293 295 295 289 278 273 275 278 280 282 284 286 290 295 302 308 312 316 319 321 323 324 326 329 332 335 336 337 339 341 343 346 347 348 348 351 354 354 355 358 359 360 0 0 1 4 5 7 10 12 14 16 18 20 22 25 30 35 36 35 37 44 55 65 74 82 92 108 143 174 187
283 290 291 290 292 294 287 275 271 273 275 278 281 283 285 288 293 299 306 311 314 318 320 322 324 325 327 329 331 333 336 338 341 343 345 346 346 347 350 352 352 354 357 358 358 359 1 2 4 5 6 8 10 10 12 14 16 19 24 26 31 37 40 40 41 48 58 69 80 91 104 125 153 175
280 285 285 285 288 289 281 270 268 271 273 276 279 281 284 286 291 297 303 308 312 316 318 319 320 321 322 326 329 332 336 338 340 342 344 344 345 346 348 348 350 354 355 356 357 359 0 3 5 5 5 7 7 7 9 11 13 16 20 24 27 33 40 44 45 45 51 61 75 89 103 120 142 163
275 277 278 280 285 284 275 266 266 269 271 274 278 280 282 285 288 293 299 304 308 312 314 315 317 319 322 326 329 331 334 336 338 340 342 343 345 346 345 345 349 352 353 354 357 358 359 1 3 3 3 4 4 4 7 10 12 13 15 19 24 26 29 36 44 48 50 54 64 84 104 122 143 161
270 272 274 277 281 278 269 262 263 267 269 272 276 279 281 284 286 290 296 301 305 309 312 314 317 319 321 324 327 329 332 334 336 338 340 342 343 343 343 343 347 350 351 353 355 357 358 359 360 0 1 1 0 2 5 8 10 11 12 14 19 22 21 24 30 43 57 61 70 99 122 134 151 166
269 270 271 274 277 273 263 257 259 264 267 270 274 277 280 283 285 288 293 298 302 306 309 312 315 317 319 322 324 327 330 332 334 336 339 340 341 341 342 343 344 346 349 351 352 354 356 357 357 357 359 359 358 359 1 4 7 10 10 10 13 16 18 19 21 24 37 52 68 109 141 154 163 173
271 271 272 274 275 268 258 254 256 261 265 269 272 276 279 281 284 287 290 294 299 303 306 309 311 314 318 320 322 325 328 331 332 334 336 338 339 340 341 342 342 343 345 347 349 352 354 355 355 356 356 356 356 357 358 359 2 6 9 8 9 12 14 15 17 16 4 330 350 127 159 170 174 180